Regional Weather Roundup
Issued by NWS

Home | Current Version | Previous Version | Graphics & Text | Print | Product List | Glossary On
Versions: 1 2 3 4 5 6 7 8 9 10 11 12 13 14 15 16 17 18 19 20 21 22 23 24 25 26 27 28 29 30 31 32 33 34 35 36 37 38 39 40 41 42 43 44 45 46 47 48
000
ASUS43 KDMX 111307
RWRIA

WEATHER ROUNDUP FOR IOWA
NATIONAL WEATHER SERVICE DES MOINES IA
800 AM CDT FRI JUL 11 2014

NOTE: "FAIR" INDICATES FEW OR NO CLOUDS BELOW 12,000 FEET WITH NO
SIGNIFICANT WEATHER AND/OR OBSTRUCTIONS TO VISIBILITY.

* - THESE STATIONS ARE NOT NWS STATIONS...THUS NOT UNDER NWS
QUALITY CONTROL.  THEY ALSO DO NOT REPORT WEATHER SUCH
AS PRECIPITATION OR FOG.

IAZ001>003-012>014-020>022-031>034-043>046-111400-
   NORTHWEST IOWA

CITY           SKY/WX    TMP DP  RH WIND       PRES   REMARKS
CARROLL *      RAIN      64  64 100 SE5       30.08R
CHEROKEE *     CLOUDY    68  66  94 S9        29.99F
DENISON *      DRIZZLE   66  66 100 SE8G14    30.04F
LE MARS *      LGT RAIN  68  68 100 S12       29.94F
ORANGE CITY *  SUNNY     72  66  83 S12       29.94F
SHELDON *      SUNNY     68  66  94 S20G26    29.93F
SIOUX CITY     LGT RAIN  69  67  93 SE9       29.96F FOG
SPENCER        CLOUDY    67  63  87 S17G26    29.99S
STORM LAKE *   MOSUNNY   66  66 100 S14       30.03F
$$

IAZ055>058-069>071-079>083-090>094-111400-
   SOUTHWEST IOWA

CITY           SKY/WX    TMP DP  RH WIND       PRES   REMARKS
ATLANTIC *     CLOUDY    68  64  88 NE7       30.07R
AUDUBON *      LGT RAIN  70  66  88 CALM      30.10R
CLARINDA *     MOSUNNY   68  66  94 VRB7      30.03R
COUNCIL BLFS * MOSUNNY   68  68 100 NE6       30.03R
CRESTON *      PTSUNNY   66  64  94 SE16G22   30.03F FOG
HARLAN  *      CLOUDY    66  66 100 N8        30.11R
LAMONI         MOSUNNY   69  64  84 S9G18     30.07S
RED OAK *      MOSUNNY   68  66  94 S8        30.02R
SHENANDOAH *   MOSUNNY   70  66  88 S9G15     30.01R
$$

IAZ047>049-059>061-072>074-084-111400-
   CENTRAL IOWA

CITY           SKY/WX    TMP DP  RH WIND       PRES   REMARKS
AMES           PTSUNNY   68  60  75 S8        30.07S
ANKENY *       SUNNY     70  63  78 SE12G17   30.08R
CHARITON *     SUNNY     68  63  83 SE12      30.09R
DES MOINES     PTSUNNY   70  60  70 S14       30.08R
GRINNELL*      PTSUNNY   68  57  68 SE13      30.11F
KNOXVILLE *    SUNNY     68  59  73 SE12      30.08S
MARSHALLTOWN   PTSUNNY   66  58  75 S12       30.08F
PELLA *        PTSUNNY   66  59  77 SE10      30.10F
PERRY *          N/A     68  63  83 S9        30.08R
$$

IAZ004>006-015-016-023>025-035-036-111400-
   NORTH CENTRAL IOWA

CITY           SKY/WX    TMP DP  RH WIND       PRES   REMARKS
ALGONA *       SUNNY     68  61  77 S18       30.02S
CLARION *      SUNNY     68  59  73 S15G21    30.05R
ESTHERVILLE    CLOUDY    65  62  90 S15       30.00R
FORT DODGE *   CLOUDY    68  61  77 S10G16    30.07R
MASON CITY     CLOUDY    66  59  78 S13       30.05F
FOREST CITY *  DRIZZLE   66  59  77 S17G23    30.02F
IOWA FALLS *     N/A     66  57  72 S12       30.08F
$$

IAZ007>011-017>019-026>030-037>042-050>054-066-111400-
   NORTHEAST IOWA

CITY           SKY/WX    TMP DP  RH WIND       PRES   REMARKS
CEDAR RAPIDS   CLOUDY    65  56  72 S8        30.12F
CHARLES CITY * MOSUNNY   66  57  72 S13       30.08F
CLINTON *      CLOUDY    66  57  72 S8        30.20S
DECORAH *        N/A    N/A N/A N/A MISG        N/A
DUBUQUE        CLOUDY    67  58  72 S14       30.16F
MONTICELLO *   SUNNY     64  59  82 SE9       30.14F
OELWEIN *      SUNNY     64  64 100 S13       30.12F
WATERLOO       CLOUDY    66  56  70 S13G20    30.09F
$$

IAZ064-065-067-068-078-111400-
   EAST CENTRAL IOWA

CITY           SKY/WX    TMP DP  RH WIND       PRES   REMARKS
DAVENPORT      PTSUNNY   68  57  68 S8        30.18S
IOWA CITY      CLOUDY    64  59  83 SE7       30.15F
MT. PLEASANT * PTSUNNY   68  55  64 SE8       30.15F
MUSCATINE *    SUNNY     68  57  68 SE6       30.16S
QUAD CITIES    PTSUNNY   67  56  67 S10       30.16F
$$

IAZ062-063-075>077-085>089-095>099-111400-
   SOUTHEAST IOWA

CITY           SKY/WX    TMP DP  RH WIND       PRES   REMARKS
BURLINGTON     MOSUNNY   67  56  67 S6        30.16F
FAIRFIELD *    MOSUNNY   68  57  68 SE9G17    30.13F
FORT MADISON * SUNNY     70  57  64 SE8       30.17S
KEOKUK *       SUNNY     66  57  72 SE8G14    30.15S
OSKALOOSA *      N/A     64  59  82 SE10      30.12S
CENTERVILLE *  SUNNY     66  61  82 SE9       30.12R
OTTUMWA        PTSUNNY   67  57  70 SE8       30.12R
WASHINGTON *   SUNNY     66  59  77 SE12      30.13F
$$

ABBREVIATIONS USED IN REMARKS
   TC - TEMPERATURES IN CELSIUS
  WCI - WIND CHILL INDEX
   HX - HEAT INDEX
  VSB - VISIBILITY
$$



USA.gov is the U.S. government's official web portal to all federal, state and local government web resources and services.